Regional Weather Roundup
Issued by NWS

Home | Current Version | Previous Version | Text Only | Print | Product List | Glossary Off
Versions: 1 2 3 4 5 6 7 8 9 10 11 12 13 14 15 16 17 18 19 20 21 22 23 24 25 26 27 28 29 30 31 32 33 34 35 36 37 38 39 40 41 42 43 44 45 46 47 48 49 50

000
ASUS43 KTOP 241659
RWRKS

WEATHER ROUNDUP FOR KANSAS
NATIONAL WEATHER SERVICE GOODLAND KS
1200 PM CDT FRI OCT 24 2014

NOTE:  "FAIR" INDICATES FEW OR NO CLOUDS BELOW 12,000 FEET WITH NO
SIGNIFICANT WEATHER AND/OR OBSTRUCTIONS TO VISIBILITY.

KSZ001>006-013>018-027>032-041>047-241800-
NORTHWEST KANSAS

CITY           SKY/WX    TMP DP  RH WIND       PRES   REMARKS
GOODLAND       MOSUNNY   82  36  19 W7        30.10S
HAYS           MOSUNNY   72  57  60 SW7       30.04F
HILL CITY      SUNNY     77  54  44 W5        30.03S
RUSSELL        MOSUNNY   71  60  68 SW10      30.02S
$$

KSZ061>065-074>080-084>089-241800-
SOUTHWEST KANSAS

CITY           SKY/WX    TMP DP  RH WIND       PRES   REMARKS
DODGE CITY     SUNNY     76  55  48 SW10      30.09S
GARDEN CITY    SUNNY     73  50  44 W8        30.10S
GREAT BEND     MOSUNNY   72  61  68 SW9       30.05S
LIBERAL        SUNNY     75  55  50 W3        30.13F
$$

KSZ066>073-081>083-090>101-241800-
SOUTHEAST KANSAS

CITY           SKY/WX    TMP DP  RH WIND       PRES   REMARKS
CHANUTE        PTSUNNY   69  60  73 SW9       30.08F
COFFEYVILLE    PTSUNNY   71  59  65 SW10      30.09F
HUTCHINSON     CLOUDY    69  60  73 S8        30.06S
NEWTON         CLOUDY    66  57  72 SW12      30.09S
PARSONS        PTSUNNY   71  60  68 SW10      30.10F
WICHITA INTL   CLOUDY    70  60  70 S13       30.07S
WICHITA JABRA  CLOUDY    69  60  73 S10       30.06F
WINFIELD       PTSUNNY   69  60  73 S8        30.10S
$$

KSZ007>012-019>026-033>040-048>060-102>105-241800-
NORTHEAST KANSAS

CITY           SKY/WX    TMP DP  RH WIND       PRES   REMARKS
CONCORDIA      CLOUDY    68  62  81 SW10      30.00S
EMPORIA        CLOUDY    67  62  84 S10       30.05S
LAWRENCE       CLOUDY    67  60  78 SW8       30.03F
MANHATTAN      CLOUDY    69  62  78 SW12      30.02S
OLATHE IND     PTSUNNY   67  60  78 S12       30.05F
OLATHE EXE     PTSUNNY   66  60  81 VRB7      30.04F
SALINA         CLOUDY    68  62  81 S14       30.04S
TOPEKA BILLARD CLOUDY    69  62  78 S7        30.02F
TOPEKA FORBES  CLOUDY    67  61  81 S9        30.03F
$$



USA.gov is the U.S. government's official web portal to all federal, state and local government web resources and services.